CZ-3B DEB, 40182

Orbit data source: Space-Track

CZ-3B DEB, 40182 is space debris in HEO originally from a launch on Mon, 19 Dec 2011 UTC launched from the Xichang Space Center, China (XSC). Debris objects in space refer to the collection of defunct objects orbiting the Earth. Examples of debris include non-operational satellites, rocket bodies, and fragments generated from explosions, collisions, or faulty payload assembly.

Loading next visibility...
Identifier
40182, 2011-077F
Orbit
HEO
Country
Flag of CNCN / PRC
Related business
Manufacturer
CALT
Mission
Spacecraft
Bus & Motor
Unknown
Mass
Unknown
Launch date (UTC)
2011-12-19 (14 years ago)
Launch vehicle
Unknown
Launch site
Xichang Space Center, China (XSC)
Object type
Payload
Rocket body
Debris
Shape & HBR
Unknown shape, 0.2 m
Radar Cross Section
Medium (>0.1 m² and <1 m²)

Expand to show TLE details & history
Last TLE update: 1 month ago

TLE from 1 month ago
0 CZ-3B DEB
1 40182U 11077F   25360.67888539 -.00000026  00000-0 -32498-3 0  9990
2 40182  23.0118 312.5794 7522164 219.0719  50.5906  1.87698670 81746
Epoch: 2025-12-26T16:17Z
TLE epoch observation values (Epoch: 2025-12-26T16:17:35.697Z)
Latitude
0.00017°
Longitude
-27.20804°
Altitude
22,683.589 km
Speed
3.615 km/s
True Right ascension
20h 50m 25s
True Declination
0° 00' 01"
Sunlit
Object was in daylight at epoch
Visualization orbit readout
Latitude
Unknown
Longitude
Unknown
Altitude
Unknown
Speed
Unknown
Apparent Right ascension
Unknown
Apparent Declination
Unknown
Sunlit
N/A
Visualization observer readout
Local Sidereal Time
17:03:31
Azimuth
Unknown
Elevation
Unknown
Doppler factor
Unknown
Orbital elements
Apogee altitude
42,271.834 km
Perigee altitude
501.53 km
Semi-major axis
27,764.819 km
Eccentricity
0.75222
Inclination
23.0118°
RAAN
312.5794°
Arg. of periapsis
219.0719°
True anomaly
141.10313°
Mean anomaly
50.5906°
Eccentric anomaly
93.60418°
Mean motion
0.46914 °/min
Orbital period
767.36 mins
BSTAR
-0.00032498
Loading maneuver chart data...
Computing Atmospheric mass density...
Loading historical data...
Loading historical data...
Loading historical data...
Loading historical data...
Loading historical data...
Loading historical data...
Loading historical data...

Documentation

Showing up to 5 results
|